Emmonak, AK

8:10 PM AKDT on June 25, 2017 (GMT -0800)
Emmonak

Weather History for PAEM - November, 2013

Change the Weather History Date:

Sunday, November 10, 2013

  Actual Average Record
Temperature  
Mean Temperature 28 °F -  
Max Temperature 33 °F 25 °F 39 °F (2014)
Min Temperature 24 °F 17 °F 1 °F (2001)
Degree Days  
Heating Degree Days 36    
Moisture  
Dew Point 20 °F    
Average Humidity 67    
Maximum Humidity 80    
Minimum Humidity 55    
Precipitation  
Precipitation 0.01 in - - ()
Sea Level Pressure  
Sea Level Pressure 29.77 in    
Wind  
Wind Speed 16 mph (WSW)    
Max Wind Speed 29 mph    
Max Gust Speed 38 mph    
Visibility 9 miles    
Events      
Averages and records for this station are not official NWS values.
T = Trace of Precipitation, MM = Missing Value Source: NWS Daily Summary

Daily Weather History Graph

Daily Weather History Graph

Search for Another Location

Airport or City:

Trip Planner

Search our weather history database for the weather conditions in past years. The results will help you decide how hot, cold, wet, or windy it might be!

Date:

Astronomy

Nov. 10, 2013 Rise Set
Actual Time 10:01 AM AKST 5:20 PM AKST
Civil Twilight 9:08 AM AKST 6:14 PM AKST
Nautical Twilight 8:11 AM AKST 7:10 PM AKST
Astronomical Twilight 7:18 AM AKST 8:04 PM AKST
Moon 3:32 PM AKST (11/10) 12:42 AM AKST (11/10)
Length of Visible Light 9h 06m
Length of Day
7h 19m
First Quarter, 57% of the Moon is Illuminated
Nov 10
First Quarter
Nov 17
Full
Nov 25
Last Quarter
Dec 2
New
Dec 9
First Quarter

Hourly Weather History & Observations

Time (AKST) Temp. Windchill Dew Point Humidity Pressure Visibility Wind Dir Wind Speed Gust Speed Precip Events Conditions
12:16 AM 33.8 °F 22.8 °F 21.2 °F 60% 29.63 in 10.0 mi SW 18.4 mph 25.3 mph N/A   Mostly Cloudy
12:36 AM 33.8 °F 20.3 °F 21.2 °F 60% 29.64 in 8.0 mi WSW 28.8 mph 38.0 mph N/A   Overcast
12:56 AM 30.2 °F 18.5 °F 24.8 °F 80% 29.64 in 10.0 mi SW 17.3 mph 27.6 mph N/A   Overcast
1:16 AM 30.2 °F 17.8 °F 24.8 °F 80% 29.64 in 10.0 mi SW 19.6 mph 24.2 mph N/A   Mostly Cloudy
1:36 AM 32.0 °F 21.2 °F 23.0 °F 69% 29.65 in 10.0 mi WSW 16.1 mph 23.0 mph N/A   Overcast
1:56 AM 30.2 °F 18.9 °F 23.0 °F 75% 29.66 in 10.0 mi SW 16.1 mph 24.2 mph 0.01 in   Overcast
2:16 AM 32.0 °F 22.5 °F 23.0 °F 69% 29.66 in 10.0 mi SW 12.7 mph - N/A   Mostly Cloudy
2:36 AM 32.0 °F 21.6 °F 21.2 °F 64% 29.65 in 10.0 mi SW 15.0 mph 20.7 mph N/A   Overcast
2:56 AM 32.0 °F 21.2 °F 21.2 °F 64% 29.66 in 10.0 mi SW 16.1 mph 20.7 mph N/A   Mostly Cloudy
3:16 AM 30.2 °F 18.9 °F 23.0 °F 75% 29.66 in 10.0 mi SW 16.1 mph 21.9 mph N/A   Mostly Cloudy
3:36 AM 30.2 °F 19.8 °F 24.8 °F 80% 29.66 in 10.0 mi SSW 13.8 mph - N/A   Mostly Cloudy
3:56 AM 30.2 °F 20.2 °F 23.0 °F 75% 29.66 in 10.0 mi SSW 12.7 mph 19.6 mph N/A   Mostly Cloudy
4:16 AM 30.2 °F 18.9 °F 24.8 °F 80% 29.66 in 10.0 mi SSW 16.1 mph - N/A   Mostly Cloudy
4:36 AM 30.2 °F 19.8 °F 24.8 °F 80% 29.67 in 10.0 mi SSW 13.8 mph - N/A   Mostly Cloudy
4:56 AM 30.2 °F 19.8 °F 23.0 °F 75% 29.67 in 10.0 mi SSW 13.8 mph 19.6 mph N/A   Mostly Cloudy
5:16 AM 32.0 °F 20.8 °F 17.6 °F 55% 29.67 in 10.0 mi SW 17.3 mph 21.9 mph N/A   Partly Cloudy
5:36 AM 32.0 °F 20.5 °F 17.6 °F 55% 29.67 in 10.0 mi SW 18.4 mph 25.3 mph N/A   Clear
5:56 AM 32.0 °F 20.1 °F 17.6 °F 55% 29.68 in 10.0 mi SW 19.6 mph 24.2 mph N/A   Scattered Clouds
6:16 AM 30.2 °F 17.4 °F 21.2 °F 69% 29.68 in 10.0 mi SW 20.7 mph 25.3 mph N/A   Mostly Cloudy
6:36 AM 30.2 °F 17.4 °F 19.4 °F 64% 29.69 in 10.0 mi WSW 20.7 mph 33.4 mph N/A   Partly Cloudy
6:56 AM 30.2 °F 18.5 °F 21.2 °F 69% 29.70 in 10.0 mi WSW 17.3 mph 29.9 mph N/A   Mostly Cloudy
7:16 AM 28.4 °F 15.8 °F 21.2 °F 74% 29.70 in 3.0 mi WSW 18.4 mph 34.5 mph N/A   Overcast
7:36 AM 30.2 °F 18.1 °F 17.6 °F 60% 29.69 in 7.0 mi SW 18.4 mph 28.8 mph N/A   Overcast
7:56 AM 28.4 °F 13.5 °F 21.2 °F 74% 29.71 in 2.0 mi WSW 26.5 mph 38.0 mph N/A   Overcast
8:16 AM 28.4 °F 18.0 °F 17.6 °F 64% 29.69 in 10.0 mi SW 12.7 mph 19.6 mph N/A   Scattered Clouds
8:36 AM 30.2 °F 17.8 °F 19.4 °F 64% 29.70 in 10.0 mi WSW 19.6 mph 32.2 mph N/A   Scattered Clouds
8:56 AM 30.2 °F 19.3 °F 19.4 °F 64% 29.70 in 10.0 mi WSW 15.0 mph - N/A   Scattered Clouds
9:16 AM 30.2 °F 16.8 °F 19.4 °F 64% 29.71 in 10.0 mi WSW 23.0 mph 29.9 mph N/A   Mostly Cloudy
9:36 AM 30.2 °F 17.8 °F 21.2 °F 69% 29.72 in 10.0 mi West 19.6 mph 25.3 mph N/A   Overcast
9:56 AM 28.4 °F 16.6 °F 21.2 °F 74% 29.72 in 10.0 mi WSW 16.1 mph - N/A   Scattered Clouds
10:16 AM 30.2 °F 19.8 °F 19.4 °F 64% 29.72 in 10.0 mi SW 13.8 mph 20.7 mph N/A   Mostly Cloudy
10:36 AM 30.2 °F 20.2 °F 19.4 °F 64% 29.72 in 10.0 mi SSW 12.7 mph - N/A   Mostly Cloudy
10:56 AM 30.2 °F 18.1 °F 21.2 °F 69% 29.73 in 4.0 mi SSW 18.4 mph - N/A   Mostly Cloudy
11:16 AM 30.2 °F 21.3 °F 24.8 °F 80% 29.73 in 3.0 mi WSW 10.4 mph - N/A   Overcast
11:36 AM 30.2 °F 19.3 °F 24.8 °F 80% 29.74 in 7.0 mi WSW 15.0 mph - N/A   Overcast
11:56 AM 30.2 °F 20.2 °F 24.8 °F 80% 29.74 in 10.0 mi SSW 12.7 mph - N/A   Overcast
12:16 PM 30.2 °F 20.2 °F 21.2 °F 69% 29.75 in 10.0 mi WSW 12.7 mph - N/A   Overcast
12:36 PM 30.2 °F 21.3 °F 19.4 °F 64% 29.75 in 10.0 mi WSW 10.4 mph 17.3 mph N/A   Overcast
12:56 PM 30.2 °F 20.2 °F 19.4 °F 64% 29.75 in 10.0 mi WSW 12.7 mph 18.4 mph N/A   Overcast
1:16 PM 30.2 °F 20.8 °F 17.6 °F 60% 29.75 in 10.0 mi WSW 11.5 mph 18.4 mph N/A   Scattered Clouds
1:36 PM 30.2 °F 18.9 °F 17.6 °F 60% 29.77 in 10.0 mi West 16.1 mph 25.3 mph N/A   Mostly Cloudy
1:56 PM 30.2 °F 18.1 °F 17.6 °F 60% 29.77 in 10.0 mi West 18.4 mph 24.2 mph N/A   Partly Cloudy
2:16 PM 30.2 °F 19.3 °F 17.6 °F 60% 29.77 in 10.0 mi West 15.0 mph - N/A   Mostly Cloudy
2:36 PM 30.2 °F 18.9 °F 17.6 °F 60% 29.78 in 10.0 mi West 16.1 mph - N/A   Mostly Cloudy
2:56 PM 30.2 °F 21.3 °F 15.8 °F 55% 29.78 in 10.0 mi West 10.4 mph 19.6 mph N/A   Overcast
3:16 PM 30.2 °F 19.3 °F 15.8 °F 55% 29.79 in 10.0 mi West 15.0 mph 20.7 mph N/A   Overcast
3:36 PM 30.2 °F 19.8 °F 15.8 °F 55% 29.79 in 10.0 mi West 13.8 mph - N/A   Overcast
3:56 PM 28.4 °F 17.5 °F 17.6 °F 64% 29.80 in 9.0 mi West 13.8 mph 21.9 mph N/A   Mostly Cloudy
4:16 PM 28.4 °F 17.0 °F 15.8 °F 59% 29.81 in 10.0 mi West 15.0 mph - N/A   Overcast
4:36 PM 28.4 °F 18.5 °F 15.8 °F 59% 29.82 in 10.0 mi West 11.5 mph 21.9 mph N/A   Overcast
4:56 PM 28.4 °F 18.5 °F 14.0 °F 55% 29.82 in 10.0 mi West 11.5 mph - N/A   Overcast
5:16 PM 28.4 °F 16.2 °F 15.8 °F 59% 29.83 in 10.0 mi West 17.3 mph 20.7 mph N/A   Overcast
5:36 PM 28.4 °F 18.5 °F 17.6 °F 64% 29.84 in 10.0 mi West 11.5 mph - N/A   Overcast
5:56 PM 28.4 °F 18.0 °F 15.8 °F 59% 29.85 in 10.0 mi West 12.7 mph 16.1 mph N/A   Overcast
6:16 PM 28.4 °F 18.5 °F 15.8 °F 59% 29.85 in 10.0 mi West 11.5 mph - N/A   Overcast
6:36 PM 26.6 °F 16.8 °F 17.6 °F 69% 29.86 in 10.0 mi WNW 10.4 mph - N/A   Mostly Cloudy
6:56 PM 26.6 °F 20.0 °F 15.8 °F 64% 29.87 in 10.0 mi West 5.8 mph - N/A   Partly Cloudy
7:16 PM 24.8 °F 17.9 °F 17.6 °F 74% 29.88 in 10.0 mi West 5.8 mph - N/A   Partly Cloudy
7:36 PM 26.6 °F 16.2 °F 15.8 °F 64% 29.89 in 10.0 mi West 11.5 mph - N/A   Partly Cloudy
7:56 PM 26.6 °F 16.8 °F 15.8 °F 64% 29.89 in 10.0 mi West 10.4 mph - N/A   Partly Cloudy
8:16 PM 26.6 °F 19.1 °F 17.6 °F 69% 29.91 in 10.0 mi West 6.9 mph - N/A   Mostly Cloudy
8:36 PM 26.6 °F 16.2 °F 17.6 °F 69% 29.91 in 10.0 mi West 11.5 mph - N/A   Mostly Cloudy
8:56 PM 26.6 °F 16.2 °F 17.6 °F 69% 29.92 in 10.0 mi SW 11.5 mph - N/A   Scattered Clouds
9:16 PM 26.6 °F 17.5 °F 19.4 °F 74% 29.93 in 10.0 mi SW 9.2 mph - N/A   Clear
9:36 PM 26.6 °F 16.8 °F 19.4 °F 74% 29.94 in 10.0 mi SW 10.4 mph - N/A   Scattered Clouds
9:56 PM 28.4 °F 17.5 °F 21.2 °F 74% 29.95 in 10.0 mi WNW 13.8 mph - N/A   Overcast
10:16 PM 28.4 °F 20.4 °F 21.2 °F 74% 29.97 in 5.0 mi NW 8.1 mph - N/A   Mostly Cloudy
10:36 PM 26.6 °F 17.5 °F 19.4 °F 74% 29.98 in 10.0 mi NW 9.2 mph - N/A   Mostly Cloudy
10:56 PM 26.6 °F 17.5 °F 19.4 °F 74% 29.99 in 10.0 mi WNW 9.2 mph - N/A   Mostly Cloudy
11:16 PM 26.6 °F 17.5 °F 19.4 °F 74% 30.01 in 10.0 mi NW 9.2 mph - N/A   Overcast
11:36 PM 28.4 °F 15.8 °F 19.4 °F 69% 30.03 in 10.0 mi West 18.4 mph 24.2 mph N/A   Mostly Cloudy
11:56 PM 26.6 °F 17.5 °F 21.2 °F 80% 30.04 in 3.0 mi West 9.2 mph - N/A   Mostly Cloudy